Tracking 19164 objects as of 21-May-2018
HD Live streaming from Space Station
objects crossing your sky now

BREEZE-KM R/B

Track BREEZE-KM R/B now!
10-day predictions


NORAD ID: 40064
Int'l Code: 2014-036D
Perigee: 1,164.0 km
Apogee: 1,519.5 km
Inclination: 82.5 °
Period: 112.4 minutes
Semi major axis: 7712 km
RCS: Unknown
Launch date: July 3, 2014
Source: Commonwealth of Independent States (former USSR) (CIS)
Launch site: PLESETSK MISSILE AND SPACE COMPLEX (PKMTR)

Note: This is a ROCKET BODY
aabbcc
Your satellite tracking list
Your tracking list is empty




NASA's NSSDC Master Catalog

Two Line Element Set (TLE):
1 40064U 14036D   18140.86657713 +.00000028 +00000-0 +62002-4 0  9999
2 40064 082.5114 273.4564 0230407 188.1559 171.5773 12.81708637181544
Source of the keplerian elements: AFSPC